Location: B?ezina
(49.8085°N, 13.6013°E)
Time: 19:08:18
(UTC+00:00)

SL-16 R/B - Pass Details

Date: 19 May 2025
Orbit: 841 x 844 km, 71.0° (Epoch: 20 June)

Event Time Altitude Azimuth Distance (km) Brightness Sun altitude
Rises 20:57:16 0° 333° (NNW) 3,414 7.3 -14.9°
Reaches altitude 10° 20:59:59 10° 343° (NNW) 2,476 5.9 -15.2°
Maximum altitude 21:05:05 33° 47° (NE) 1,401 3.5 -15.6°
Enters shadow 21:09:30 13° 107° (ESE) 2,260 4.0 -15.9°
